Weather History for KJOT - November, 2013

Change the Weather History Date:

Monday, November 25, 2013

  Actual Average (KLOT) Record (KLOT)
Temperature  
Mean Temperature 26 °F 36 °F  
Max Temperature 31 °F 43 °F 60 °F (2006)
Min Temperature 20 °F 28 °F 10 °F (2005)
Degree Days  
Heating Degree Days 40 29  
Month to date heating degree days 579  
Since 1 July heating degree days 1066  
Cooling Degree Days 0 0  
Month to date cooling degree days 0  
Year to date cooling degree days 862  
Moisture  
Dew Point 18 °F    
Average Humidity 67    
Maximum Humidity 85    
Minimum Humidity 50    
Precipitation  
Precipitation 0.00 in 0.12 in 0.37 in (1993)
Month to date precipitation 2.83  
Year to date precipitation 37.19  
Snow  
Snow 0.00 in 0.00 in 0.50 in (2013)
Month to date snowfall 0.5  
Since 1 July snowfall 0.5  
Since 1 September snowfall 0.5  
Snow Depth -    
Sea Level Pressure  
Sea Level Pressure 30.20 in    
Wind  
Wind Speed 9 mph (SW)    
Max Wind Speed 15 mph    
Max Gust Speed 22 mph    
Visibility 9 miles    
Events Snow    
T = Trace of Precipitation, MM = Missing Value Source: NWS Daily Summary

Daily Weather History Graph

Daily Weather History Graph

Search for Another Location

Airport or City:

Trip Planner

Search our weather history database for the weather conditions in past years. The results will help you decide how hot, cold, wet, or windy it might be!

Date:

Astronomy

Nov. 25, 2013 Rise Set
Actual Time 6:53 AM CST 4:25 PM CST
Civil Twilight 6:22 AM CST 4:56 PM CST
Nautical Twilight 5:48 AM CST 5:30 PM CST
Astronomical Twilight 5:15 AM CST 6:03 PM CST
Moon 11:53 PM CST (11/25) 12:07 PM CST (11/25)
Length of Visible Light 10h 33m
Length of Day
9h 32m
Waning Gibbous, 51% of the Moon is Illuminated
Nov 25
Waning Gibbous
Nov 25
Last Quarter
Dec 2
New
Dec 9
First Quarter
Dec 17
Full

Hourly Weather History & Observations

Time (CST) Temp. Windchill Dew Point Humidity Pressure Visibility Wind Dir Wind Speed Gust Speed Precip Events Conditions
12:15 AM 20.1 °F 13.6 °F 10.0 °F 65% 30.40 in 10.0 mi SSW 4.6 mph - N/A   Clear
12:35 AM 20.3 °F 11.5 °F 10.2 °F 65% 30.39 in 10.0 mi SSW 6.9 mph - N/A   Clear
12:55 AM 21.0 °F 12.4 °F 9.9 °F 62% 30.39 in 10.0 mi SW 6.9 mph - N/A   Clear
1:15 AM 20.8 °F 10.4 °F 9.7 °F 62% 30.37 in 10.0 mi SSW 9.2 mph - N/A   Clear
1:35 AM 21.0 °F 11.4 °F 9.5 °F 61% 30.37 in 10.0 mi SSW 8.1 mph - N/A   Clear
1:55 AM 21.2 °F 10.9 °F 10.0 °F 62% 30.36 in 10.0 mi SSW 9.2 mph - N/A   Clear
2:15 AM 22.1 °F 10.0 °F 9.7 °F 59% 30.35 in 10.0 mi SSW 12.7 mph 18.4 mph N/A   Clear
2:35 AM 22.6 °F 12.6 °F 9.5 °F 57% 30.34 in 10.0 mi SSW 9.2 mph 17.3 mph N/A   Clear
2:55 AM 22.6 °F 14.3 °F 10.6 °F 60% 30.33 in 10.0 mi SW 6.9 mph - N/A   Clear
3:15 AM 22.6 °F 12.6 °F 10.9 °F 61% 30.33 in 10.0 mi SW 9.2 mph - N/A   Clear
3:35 AM 22.5 °F 13.2 °F 11.5 °F 63% 30.31 in 10.0 mi SSW 8.1 mph - N/A   Clear
3:55 AM 22.8 °F 12.9 °F 12.0 °F 63% 30.31 in 10.0 mi SSW 9.2 mph - N/A   Scattered Clouds
4:15 AM 23.9 °F 15.8 °F 12.0 °F 61% 30.30 in 10.0 mi SW 6.9 mph 16.1 mph N/A   Scattered Clouds
4:35 AM 24.3 °F 15.4 °F 12.6 °F 61% 30.30 in 10.0 mi SSW 8.1 mph - N/A   Mostly Cloudy
4:55 AM 24.4 °F 14.2 °F 13.1 °F 62% 30.29 in 10.0 mi SSW 10.4 mph - N/A   Overcast
5:15 AM 24.8 °F 14.0 °F 13.8 °F 63% 30.27 in 10.0 mi South 11.5 mph - N/A   Mostly Cloudy
5:35 AM 24.8 °F 14.6 °F 13.8 °F 63% 30.26 in 10.0 mi SSW 10.4 mph 16.1 mph N/A   Mostly Cloudy
5:55 AM 25.3 °F 14.1 °F 14.0 °F 62% 30.26 in 10.0 mi SSW 12.7 mph 19.6 mph N/A   Mostly Cloudy
6:15 AM 25.5 °F 14.9 °F 13.8 °F 61% 30.24 in 10.0 mi SSW 11.5 mph 17.3 mph N/A   Mostly Cloudy
6:35 AM 25.7 °F 13.5 °F 14.0 °F 61% 30.24 in 10.0 mi SSW 15.0 mph - N/A   Mostly Cloudy
6:55 AM 26.1 °F 14.5 °F 14.0 °F 60% 30.24 in 10.0 mi SSW 13.8 mph 18.4 mph N/A   Overcast
7:15 AM 26.2 °F 16.4 °F 13.8 °F 59% 30.24 in 10.0 mi SSW 10.4 mph 18.4 mph N/A   Overcast
7:35 AM 26.4 °F 15.5 °F 13.8 °F 59% 30.23 in 10.0 mi SSW 12.7 mph 21.9 mph N/A   Scattered Clouds
7:55 AM 26.6 °F 16.2 °F 14.2 °F 60% 30.23 in 10.0 mi SSW 11.5 mph 18.4 mph N/A   Mostly Cloudy
8:15 AM 27.0 °F 16.1 °F 14.4 °F 59% 30.23 in 10.0 mi SSW 12.7 mph 18.4 mph N/A   Mostly Cloudy
8:35 AM 27.5 °F 16.8 °F 14.4 °F 58% 30.22 in 10.0 mi SSW 12.7 mph 19.6 mph N/A   Mostly Cloudy
8:55 AM 28.0 °F 19.3 °F 14.4 °F 57% 30.22 in 10.0 mi SSW 9.2 mph 18.4 mph N/A   Mostly Cloudy
9:15 AM 28.8 °F 19.0 °F 14.4 °F 55% 30.21 in 10.0 mi SSW 11.5 mph 18.4 mph N/A   Scattered Clouds
9:35 AM 29.1 °F 20.0 °F 14.0 °F 53% 30.20 in 10.0 mi SW 10.4 mph 18.4 mph N/A   Scattered Clouds
9:55 AM 29.3 °F 19.6 °F 14.0 °F 53% 30.19 in 10.0 mi SW 11.5 mph 19.6 mph N/A   Clear
10:15 AM 30.2 °F 20.2 °F 14.5 °F 52% 30.19 in 10.0 mi SW 12.7 mph 18.4 mph N/A   Clear
10:35 AM 30.6 °F 21.8 °F 14.0 °F 50% 30.19 in 10.0 mi SW 10.4 mph 19.6 mph N/A   Mostly Cloudy
10:55 AM 30.7 °F 20.9 °F 14.9 °F 52% 30.19 in 10.0 mi SW 12.7 mph 18.4 mph N/A   Mostly Cloudy
11:15 AM 30.4 °F 20.5 °F 16.7 °F 57% 30.18 in 10.0 mi SW 12.7 mph 21.9 mph N/A   Scattered Clouds
11:35 AM 30.6 °F 22.4 °F 17.8 °F 59% 30.17 in 7.0 mi SW 9.2 mph 20.7 mph N/A Snow Light Snow
11:55 AM 29.5 °F 19.3 °F 22.1 °F 74% 30.17 in 3.0 mi SW 12.7 mph 19.6 mph N/A Snow Light Snow
12:15 PM 29.1 °F 18.9 °F 23.5 °F 80% 30.16 in 4.0 mi SW 12.7 mph 17.3 mph N/A Snow Light Snow
12:35 PM 28.8 °F 19.5 °F 23.7 °F 81% 30.16 in 2.5 mi SW 10.4 mph 19.6 mph N/A Snow Light Snow
12:55 PM 28.9 °F 20.4 °F 24.8 °F 84% 30.13 in 3.0 mi SSW 9.2 mph 17.3 mph N/A Snow Light Snow
1:15 PM 29.1 °F 20.0 °F 25.2 °F 85% 30.13 in 4.0 mi SW 10.4 mph 19.6 mph N/A Snow Light Snow
1:35 PM 29.1 °F 21.3 °F 24.6 °F 83% 30.13 in 7.0 mi SW 8.1 mph 16.1 mph N/A   Overcast
1:55 PM 29.3 °F 20.8 °F 24.8 °F 83% 30.12 in 7.0 mi SW 9.2 mph 18.4 mph N/A Snow Light Snow
2:15 PM 29.7 °F 19.6 °F 24.6 °F 81% 30.12 in 5.0 mi SW 12.7 mph 21.9 mph N/A Snow Light Snow
2:35 PM 30.2 °F 20.8 °F 24.6 °F 80% 30.12 in 4.0 mi SW 11.5 mph - N/A Snow Light Snow
2:55 PM 30.4 °F 21.0 °F 24.8 °F 80% 30.11 in 3.0 mi SW 11.5 mph 17.3 mph N/A Snow Light Snow
3:15 PM 30.2 °F 20.2 °F 25.0 °F 81% 30.12 in 7.0 mi SW 12.7 mph - N/A Snow Light Snow
3:35 PM 31.1 °F 24.5 °F 24.6 °F 77% 30.13 in 10.0 mi WSW 6.9 mph - N/A   Overcast
3:55 PM 31.6 °F 24.4 °F 23.0 °F 70% 30.13 in 10.0 mi SW 8.1 mph - N/A   Overcast
4:15 PM 31.8 °F 23.9 °F 22.8 °F 69% 30.13 in 10.0 mi SW 9.2 mph 17.3 mph N/A Snow Light Snow
4:35 PM 31.6 °F 24.4 °F 23.5 °F 72% 30.14 in 4.0 mi WSW 8.1 mph - N/A Snow Light Snow
4:55 PM 31.1 °F 23.1 °F 24.1 °F 75% 30.14 in 7.0 mi WSW 9.2 mph - N/A Snow Light Snow
5:15 PM 30.7 °F 24.9 °F 24.3 °F 77% 30.14 in 10.0 mi WSW 5.8 mph - N/A   Overcast
5:35 PM 31.1 °F 24.5 °F 23.5 °F 74% 30.14 in 10.0 mi SW 6.9 mph - N/A   Overcast
5:55 PM 31.1 °F 24.5 °F 23.5 °F 74% 30.14 in 10.0 mi SW 6.9 mph - N/A   Overcast
6:15 PM 30.7 °F 24.1 °F 23.9 °F 76% 30.14 in 10.0 mi SW 6.9 mph - N/A   Overcast
6:35 PM 30.7 °F 24.9 °F 24.1 °F 76% 30.14 in 10.0 mi SW 5.8 mph - N/A   Overcast
6:55 PM 30.7 °F 24.9 °F 24.4 °F 77% 30.15 in 10.0 mi SSW 5.8 mph - N/A   Overcast
7:15 PM 30.9 °F 25.2 °F 23.9 °F 75% 30.15 in 10.0 mi SW 5.8 mph - N/A   Overcast
7:35 PM 31.1 °F 25.4 °F 22.3 °F 70% 30.15 in 10.0 mi SSW 5.8 mph - N/A   Overcast
7:55 PM 31.1 °F 25.4 °F 21.2 °F 67% 30.15 in 10.0 mi SW 5.8 mph - N/A   Overcast
8:15 PM 31.3 °F 25.6 °F 21.0 °F 66% 30.15 in 10.0 mi SSW 5.8 mph - N/A   Overcast
8:35 PM 31.6 °F 25.1 °F 20.3 °F 63% 30.15 in 10.0 mi SW 6.9 mph - N/A   Overcast
8:55 PM 31.3 °F 24.7 °F 21.0 °F 66% 30.14 in 10.0 mi SW 6.9 mph - N/A   Overcast
9:15 PM 31.6 °F 23.1 °F 21.7 °F 67% 30.14 in 10.0 mi SW 10.4 mph - N/A   Overcast
9:35 PM 31.6 °F 23.7 °F 22.5 °F 69% 30.14 in 10.0 mi SW 9.2 mph - N/A   Overcast
9:55 PM 31.8 °F 23.3 °F 22.8 °F 69% 30.13 in 10.0 mi WSW 10.4 mph 17.3 mph N/A   Overcast
10:15 PM 31.6 °F 24.4 °F 23.0 °F 70% 30.13 in 10.0 mi WSW 8.1 mph - N/A   Scattered Clouds
10:35 PM 31.1 °F 24.5 °F 23.0 °F 72% 30.12 in 10.0 mi WSW 6.9 mph - N/A   Clear
10:55 PM 30.2 °F 23.4 °F 23.0 °F 75% 30.11 in 10.0 mi WSW 6.9 mph - N/A   Clear
11:15 PM 29.5 °F 24.5 °F 22.8 °F 76% 30.11 in 10.0 mi SW 4.6 mph - N/A   Clear
11:35 PM 28.9 °F - 22.6 °F 77% 30.10 in 10.0 mi Calm Calm - N/A   Clear
11:55 PM 27.3 °F - 21.9 °F 80% 30.10 in 10.0 mi Calm Calm - N/A   Clear